Regional Weather Roundup
Issued by NWS

Home | Current Version | Previous Version | Text Only | Print | Product List | Glossary On
Versions: 1 2 3 4 5 6 7 8 9 10 11 12 13 14 15 16 17 18 19 20 21 22 23 24 25 26 27
000
ASUS44 KBMX 182210
RWRAL

ALABAMA REGIONAL WEATHER ROUNDUP
NATIONAL WEATHER SERVICE BIRMINGHAM AL
400 PM CST WED JAN 18 2017

NOTE: "FAIR" INDICATES FEW OR NO CLOUDS BELOW 12,000 FEET
WITH NO SIGNIFICANT WEATHER AND/OR OBSTRUCTIONS TO VISIBILITY.

THE REMARK "TC" DENOTES TEMPERATURE IN DEGREES CELSIUS.

ALZ001>011-014-016>018-020-182300-
NORTH ALABAMA

CITY           SKY/WX    TMP DP  RH WIND       PRES   REMARKS
MUSCLE SHOALS  MOSUNNY   58  46  64 E5        30.12S
HUNTSVILLE     CLOUDY    62  50  64 NW3       30.11F
DECATUR        MOSUNNY   60  49  66 N3        30.12F
HALEYVILLE     FAIR      62  52  69 S3        30.11F
GADSDEN        SUNNY     66  54  65 CALM      30.10F
$$

ALZ012-013-022-023-030>036-040>044-182300-
WEST CENTRAL ALABAMA

CITY           SKY/WX    TMP DP  RH WIND       PRES   REMARKS
TUSCALOOSA     CLOUDY    66  59  78 E5        30.11S
$$

ALZ015-024>027-033>036-040>044-182300-
CENTRAL ALABAMA

CITY           SKY/WX    TMP DP  RH WIND       PRES   REMARKS
BIRMINGHAM     PTSUNNY   66  53  63 CALM      30.12F
MONTGOMERY     MOSUNNY   77  57  50 S6        30.08S
SHELBY CO ARPT MOSUNNY   66  61  84 CALM      30.11S
MAXWELL AFB    SUNNY     74  62  65 N10       30.07F
GREENVILLE     FAIR      77  57  50 CALM      30.07F
$$

ALZ019-021-028-029-037-038-045>048-182300-
EAST CENTRAL ALABAMA

CITY           SKY/WX    TMP DP  RH WIND       PRES   REMARKS
ANNISTON       SUNNY     65  55  70 S6        30.10F
ALEXANDER CITY MOSUNNY   70  63  76 N3        30.11S
AUBURN         MOSUNNY   72  60  66 N7        30.11F
$$

ALZ051>064-182300-
SOUTHWEST ALABAMA

CITY           SKY/WX    TMP DP  RH WIND       PRES   REMARKS
MOBILE         MOSUNNY   76  60  57 S8        30.08R
BROOKLEY FIELD MOSUNNY   74  68  81 S8        30.09S
EVERGREEN      MOSUNNY   76  58  53 SW6       30.07F
$$

ALZ049-050-065>069-182300-
SOUTHEAST ALABAMA

CITY           SKY/WX    TMP DP  RH WIND       PRES   REMARKS
DOTHAN         MOSUNNY   76  60  57 W3        30.12S
OZARK          SUNNY     76  59  54 SW3       30.08S
TROY           MOSUNNY   76  59  55 NW3       30.09S
EUFAULA        FAIR      78  57  48 VRB5      30.07S
$$




USA.gov is the U.S. government's official web portal to all federal, state and local government web resources and services.